Date String (YYYY-MM-DD hh:mm:ss) UTC,Instrument flags,absolute air pressure of the measurement (hPa),sample flow rate (lpm),inlet stack bypass flow (lpm),air temperature of the measurement (°C),ambient temperature measured by the external sensor (°C),aerosol sample conditioner tube jacket temperature (°C),OPC LED temperature (°C),internal box temperature (°C),relative humidity of the measurement (%),span deviation,mass concentration of particles derived from Lorenz-Mie calculation of OPC scattering (μg/m³),mass concentration of particles derived from Lorenz-Mie calculation of OPC scattering (μg/m³),mass concentration of particles derived from Lorenz-Mie calculation of OPC scattering (μg/m³)
DateTimeUTC,F1_M11,P_M11,Q1_M11,Q2_M11,T1_M11,T2_M11,T3_M11,T4_M11,T5_M11,U1_M11,ZSPAN_M11,X0_M11,X2_M11,X1_M11
2023-06-03 09:00:00,SystemResetWarning,0830.0,5.00,000.00,030.2,028.6,000.0,038.5,031.8,29.1,0001.5,0013.61,0006.70,0005.59
2023-06-03 09:01:00,SystemResetWarning,0830.0,5.00,000.00,030.2,028.6,000.0,038.5,031.8,29.1,0001.5,0013.92,0006.75,0005.60
2023-06-03 09:02:00,SystemResetWarning,0830.0,5.00,000.00,030.2,028.6,000.0,038.5,031.8,29.1,0001.6,0014.07,0006.78,0005.64
2023-06-03 09:03:00,SystemResetWarning,0830.1,5.00,000.00,030.2,028.7,000.0,038.5,031.8,29.1,0001.1,0014.19,0006.83,0005.66
2023-06-03 09:04:00,SystemResetWarning,0830.0,5.00,000.00,030.2,028.7,000.0,038.5,031.8,29.0,0001.2,0014.46,0006.80,0005.66
2023-06-03 09:05:00,SystemResetWarning,0830.0,5.00,000.00,030.2,028.7,000.0,038.6,031.8,29.0,0001.2,0014.51,0006.82,0005.66
2023-06-03 09:06:00,SystemResetWarning,0830.0,5.00,000.00,030.2,028.7,000.0,038.6,031.9,28.9,0001.2,0014.36,0006.79,0005.66
2023-06-03 09:07:00,SystemResetWarning,0830.0,5.00,000.00,030.2,028.7,000.0,038.6,031.9,28.9,0001.3,0014.26,0006.76,0005.65
2023-06-03 09:08:00,SystemResetWarning,0830.0,5.00,000.00,030.2,028.7,000.0,038.6,031.9,28.9,0001.3,0014.31,0006.68,0005.64
2023-06-03 09:09:00,SystemResetWarning,0830.0,5.00,000.00,030.3,028.7,000.0,038.6,031.9,28.9,0001.4,0014.06,0006.64,0005.64
2023-06-03 09:10:00,SystemResetWarning,0830.0,5.00,000.00,030.3,028.7,000.0,038.6,031.9,28.9,0001.6,0013.10,0006.59,0005.65
2023-06-03 09:11:00,SystemResetWarning,0830.0,5.00,000.00,030.3,028.7,000.0,038.6,031.9,28.9,0001.7,0012.38,0006.54,0005.65
2023-06-03 09:12:00,SystemResetWarning,0830.0,5.00,000.00,030.3,028.7,000.0,038.6,031.9,28.9,0001.8,0012.19,0006.54,0005.67
2023-06-03 09:13:00,SystemResetWarning,0830.0,5.00,000.00,030.3,028.7,000.0,038.6,031.9,28.9,0001.9,0012.26,0006.53,0005.66
2023-06-03 09:14:00,SystemResetWarning,0830.0,5.00,000.00,030.3,028.7,000.0,038.6,031.9,28.9,0002.2,0012.59,0006.55,0005.66
2023-06-03 09:15:00,SystemResetWarning,0830.0,5.00,000.00,030.3,028.7,000.0,038.6,031.9,28.9,0002.3,0012.18,0006.58,0005.67
2023-06-03 09:16:00,SystemResetWarning,0829.9,5.00,000.00,030.3,028.7,000.0,038.6,031.9,28.8,0002.3,0012.21,0006.61,0005.68
2023-06-03 09:17:00,SystemResetWarning,0829.9,5.00,000.00,030.3,028.7,000.0,038.6,031.9,28.8,0002.6,0012.37,0006.67,0005.70
2023-06-03 09:18:00,SystemResetWarning,0829.9,5.00,000.00,030.3,028.7,000.0,038.7,031.9,28.7,0002.9,0012.94,0006.72,0005.72
2023-06-03 09:19:00,SystemResetWarning,0830.0,5.00,000.00,030.3,028.7,000.0,038.7,031.9,28.7,0002.8,0012.93,0006.74,0005.74
2023-06-03 09:20:00,SystemResetWarning,0830.0,5.00,000.00,030.3,028.7,000.0,038.7,031.9,28.7,0003.0,0012.34,0006.79,0005.77
2023-06-03 09:21:00,SystemResetWarning,0830.0,5.00,000.00,030.3,028.7,000.0,038.7,031.9,28.6,0002.7,0012.46,0006.80,0005.76
2023-06-03 09:22:00,SystemResetWarning,0830.0,5.00,000.00,030.3,028.7,000.0,038.7,031.9,28.6,0002.7,0012.91,0006.83,0005.75
2023-06-03 09:23:00,SystemResetWarning,0830.0,5.00,000.00,030.3,028.7,000.0,038.7,031.9,28.6,0002.5,0012.97,0006.83,0005.73
2023-06-03 09:24:00,SystemResetWarning,0830.0,5.00,000.00,030.3,028.7,000.0,038.7,031.9,28.5,0002.0,0013.03,0006.84,0005.71
2023-06-03 09:25:00,SystemResetWarning,0830.0,5.00,000.00,030.3,028.8,000.0,038.7,031.9,28.4,0001.8,0013.60,0006.79,0005.67
2023-06-03 09:26:00,SystemResetWarning,0830.0,5.01,000.00,030.3,028.8,000.0,038.7,031.9,28.4,0001.5,0013.66,0006.75,0005.63
2023-06-03 09:27:00,SystemResetWarning,0830.0,5.01,000.00,030.3,028.8,000.0,038.7,031.9,28.3,0001.4,0013.52,0006.66,0005.57
2023-06-03 09:28:00,SystemResetWarning,0830.0,5.00,000.00,030.3,028.8,000.0,038.7,031.9,28.2,0000.9,0013.26,0006.53,0005.49
2023-06-03 09:29:00,SystemResetWarning,0830.0,4.99,000.00,030.3,028.8,000.0,038.7,031.9,28.1,0000.8,0012.39,0006.34,0005.38
2023-06-03 09:30:00,SystemResetWarning,0830.0,4.99,000.00,030.3,028.8,000.0,038.7,032.0,28.2,0001.3,0012.15,0006.24,0005.31
2023-06-03 09:31:00,SystemResetWarning,0830.0,4.99,000.00,030.4,028.8,000.0,038.7,032.0,28.2,0000.9,0011.89,0006.14,0005.24
2023-06-03 09:32:00,SystemResetWarning,0830.0,5.00,000.00,030.4,028.8,000.0,038.7,031.9,27.8,0001.3,0011.66,0005.97,0005.12
2023-06-03 09:33:00,SystemResetWarning,0830.0,5.01,000.00,030.4,028.8,000.0,038.7,032.0,27.5,0001.1,0011.46,0005.78,0004.96
2023-06-03 09:34:00,SystemResetWarning,0830.0,5.01,000.00,030.4,028.8,000.0,038.7,031.9,27.8,0001.5,0011.59,0005.67,0004.85
2023-06-03 09:35:00,SystemResetWarning,0830.0,5.00,000.00,030.4,028.8,000.0,038.7,031.9,28.1,0001.9,0012.87,0005.63,0004.82
2023-06-03 09:36:00,SystemResetWarning,0830.0,5.00,000.00,030.4,028.8,000.0,038.7,032.0,28.4,0001.8,0011.87,0005.64,0004.84
2023-06-03 09:37:00,SystemResetWarning,0830.0,5.00,000.00,030.4,028.8,000.0,038.7,032.0,28.4,0002.0,0011.94,0005.72,0004.91
2023-06-03 09:38:00,SystemResetWarning,0830.0,4.99,000.00,030.4,028.8,000.0,038.7,032.0,28.5,0001.8,0012.12,0005.85,0004.98
2023-06-03 09:39:00,SystemResetWarning,0830.0,5.00,000.00,030.4,028.8,000.0,038.7,032.0,28.5,0002.0,0012.42,0006.02,0005.09
2023-06-03 09:40:00,SystemResetWarning,0830.0,5.00,000.00,030.4,028.8,000.0,038.7,032.0,28.6,0001.4,0012.75,0006.21,0005.21
2023-06-03 09:41:00,SystemResetWarning,0830.0,5.00,000.00,030.4,028.8,000.0,038.7,032.0,28.5,0000.6,0013.07,0006.34,0005.29
2023-06-03 09:42:00,SystemResetWarning,0830.0,5.00,000.00,030.4,028.8,000.0,038.8,032.0,28.5,0000.7,0013.28,0006.45,0005.35
2023-06-03 09:43:00,SystemResetWarning,0830.0,5.01,000.00,030.4,028.8,000.0,038.8,032.0,28.6,0001.0,0013.46,0006.64,0005.48
2023-06-03 09:44:00,SystemResetWarning,0830.0,5.01,000.00,030.4,028.8,000.0,038.8,032.0,28.6,0001.6,0013.33,0006.86,0005.67
2023-06-03 09:45:00,SystemResetWarning,0830.0,5.00,000.00,030.4,028.8,000.0,038.8,032.0,28.6,0001.7,0013.49,0006.98,0005.81
2023-06-03 09:46:00,SystemResetWarning,0830.0,5.01,000.00,030.4,028.8,000.0,038.8,032.0,28.6,0001.6,0012.79,0007.01,0005.89
2023-06-03 09:47:00,SystemResetWarning,0830.0,5.00,000.00,030.4,028.8,000.0,038.8,032.0,28.6,0001.5,0012.76,0007.07,0005.92
2023-06-03 09:48:00,SystemResetWarning,0830.0,5.00,000.00,030.4,028.8,000.0,038.8,032.0,28.6,0001.5,0012.79,0007.04,0005.91
2023-06-03 09:49:00,SystemResetWarning,0830.1,5.00,000.00,030.4,028.8,000.0,038.8,032.0,28.6,0002.0,0012.56,0006.96,0005.88
2023-06-03 09:50:00,SystemResetWarning,0830.0,5.00,000.00,030.4,028.8,000.0,038.8,032.0,28.5,0002.0,0012.52,0006.89,0005.86
2023-06-03 09:51:00,SystemResetWarning,0830.1,5.00,000.00,030.4,028.8,000.0,038.8,032.0,28.5,0002.3,0012.43,0006.82,0005.84
2023-06-03 09:52:00,SystemResetWarning,0830.0,5.00,000.00,030.4,028.8,000.0,038.8,032.0,28.5,0002.8,0012.21,0006.75,0005.81
2023-06-03 09:53:00,SystemResetWarning,0830.0,5.00,000.00,030.4,028.8,000.0,038.8,032.0,28.4,0002.8,0012.14,0006.69,0005.80
2023-06-03 09:54:00,SystemResetWarning,0830.0,5.00,000.00,030.4,028.8,000.0,038.8,032.0,28.2,0002.8,0012.25,0006.64,0005.77
2023-06-03 09:55:00,SystemResetWarning,0830.0,5.00,000.00,030.4,028.8,000.0,038.8,032.0,28.2,0002.8,0012.29,0006.49,0005.70
2023-06-03 09:56:00,SystemResetWarning,0830.0,5.00,000.00,030.4,028.8,000.0,038.8,032.0,28.2,0002.6,0012.59,0006.47,0005.64
2023-06-03 09:57:00,SystemResetWarning,0830.1,4.99,000.00,030.4,028.8,000.0,038.8,032.0,28.2,0002.4,0011.90,0006.45,0005.60
2023-06-03 09:58:00,SystemResetWarning,0830.0,5.00,000.00,030.4,028.8,000.0,038.8,032.0,28.2,0002.0,0011.67,0006.39,0005.54
2023-06-03 09:59:00,SystemResetWarning,0830.0,5.00,000.00,030.4,028.8,000.0,038.8,032.0,28.2,0002.3,0011.74,0006.36,0005.51
